STARLINK-1167, 45071

Orbit data source: Space-Track

STARLINK-1167, 45071 is a payload satellite owned by SpaceX/Seattle (US) in LEO that was launched on Wed, 29 Jan 2020 UTC via an FALCON 9 launch vehicle from the Air Force Eastern Test Range (AFETR). Payload-class satellites include a variety of spacecraft equipped with specific instruments for various scientific and technological missions. These include communications satellites like Starlink; space stations such as the ISS; scientific satellites like the Hubble; Earth observation satellites from companies like Planet Labs, Umbra, and HawkEye 360; GPS; miniature CubeSats for education and research; and military/defense satellites.

Loading next visibility...
Identifier
45071, 2020-006AD
Orbit
LEO
Country
Flag of USUS
Related business
Manufacturer
SpaceX/Seattle
Mission
Partially operational Commercial Communications
Bus & Motor
STARLINK, Unknown motor
Mass
260 kg wet, ~248 kg dry
Launch date (UTC)
2020-01-29 (7 years ago)
Launch vehicle
FALCON 9
Launch site
Air Force Eastern Test Range (AFETR)
Object type
Payload
Rocket body
Debris
Shape & HBR
Box + 1 Pan, 10.1 m
Radar Cross Section
13.562 m², Large (>1 m²)

Expand to show TLE details & history
Last TLE update: 4 hours ago

TLE from 4 hours ago
0 STARLINK-1167
1 45071U 20006AD  26257.95248731  .00039930  00000-0  81866-3 0  9992
2 45071  53.1510  88.4877 0002528 168.2358 191.8709 15.45689565365997
Epoch: 2026-09-14T22:51Z
TLE epoch observation values (Epoch: 2026-09-14T22:51:34.903Z)
Latitude
-0.00002°
Longitude
111.66686°
Altitude
431.942 km
Speed
7.653 km/s
True Right ascension
05h 53m 57s
True Declination
0° 00' 00"
Sunlit
Object was in daylight at epoch
Visualization orbit readout
Latitude
Unknown
Longitude
Unknown
Altitude
Unknown
Speed
Unknown
Apparent Right ascension
Unknown
Apparent Declination
Unknown
Sunlit
N/A
Visualization observer readout
Local Sidereal Time
19:27:33
Azimuth
Unknown
Elevation
Unknown
Doppler factor
Unknown
Orbital elements
Apogee altitude
431.333 km
Perigee altitude
427.891 km
Semi-major axis
6,807.749 km
Eccentricity
0.00025
Inclination
53.151°
RAAN
88.4877°
Arg. of periapsis
168.2358°
True anomaly
191.86494°
Mean anomaly
191.8709°
Eccentric anomaly
191.86792°
Mean motion
3.86401 °/min
Orbital period
93.17 mins
BSTAR
0.00081866
Loading maneuver chart data...
Computing Atmospheric mass density...

Documentation

Showing up to 5 results
|